SL-8 R/B

Satellite information

Favourite Embed

Satellite Type and Status

ROCKET BODYIN ORBIT

Key statistics

Satellite SL-8 R/B at a glance.

Uptime

14808

Days in orbit

Revolutions

≈ 13.7

Per day

Orbit

LEO

Low Earth Orbit

Inclination

82.9

Latest

Satellite identification and parameters

Extended collection of information and parameters for SL-8 R/B.

Object identification

Identified? True

Debris? False

Object name: SL-8 R/B

International designator: 1985-041B

Object number (NORAD): 15752

Object ID (CCSDS): 15752

Country: COMMONWEALTH OF INDEPENDENT STATES (CIS)

Current information (Y/N): Y

RCS size: LARGE

Orbital parameters

Period: 104.854 minutes

Inclination: 82.9497 deg

SMA: 7365.757 km

Apoapsis: 1005.76 km

Periapsis: 969.484 km

RAAN: 178.542 deg

Eccentricy: 0.00246251

Argument of periapsis: 141.9009 deg

Mean anomaly: 218.3893 deg

Mean motion: 13.73335674 rev/day

Mean motion (dot): -0.00000007 rev/day2

B* drag term: -0.000023583455 1/REarth

Two-line elements (TLE)

Creation date: Dec. 14, 2025, 3:07 a.m.

Reference frame: TEME

Reference center: EARTH

Epoch: Dec. 13, 2025, 3:48 p.m. UTC

TLE line 0: 0 SL-8 R/B

TLE line 1: 1 15752U 85041B 25347.65833362 -.00000007 00000-0 -23583-4 0 9999

TLE line 2: 2 15752 82.9497 178.5420 0024625 141.9009 218.3893 13.73335674 31258

Live tracking on map

Real-time ground track for satellite SL-8 R/B.

In-orbit conjunctions

A list of the most updated potential collisions computed for object SL-8 R/B.

Target Orbit TCA Probability of collision Miss distance Type
COSMOS 1344 LEO 2025-08-30 10:26:38 0.0002478487 116.0 (m) PAYLOAD

Associated space launch

Civilian navigation satellite equivalent to the purely military Parus

SL-8 R/B was lifted into orbit during the mission ‘Kosmos-3M | Tsikada 12’, on board a Kosmos-3M space rocket.

The launch took place on May 30, 1985, 1:14 a.m. from 132/1 (132L).

For more information about the launch, click the button.

Launch to space Kosmos-3M | Tsikada 12
Kosmos-3M | Tsikada 12

Agency: N/A

Status: Launch Successful

Launch date: May 30, 1985, 1:14 a.m. UTC

Rocket: Kosmos-3M

Launch pad: 132/1 (132L)

Location: Plesetsk Cosmodrome, Russian Federation

...

Latest news about this satellite

There are no fresh news available about this satellite. Check back as we update our databases every day.


Newsletter sign-up

Weekly statistics, charts and insights to help you stay on top of the space industry.